Terminal Aerodrome Forecast
Issued by NWS Brownsville, TX

Home | Current Version | Previous Version | Text Only | Print | Product List | Glossary On
Versions: 1 2 3 4 5 6 7 8 9 10 11 12 13 14 15 16 17 18 19 20 21 22 23 24 25
000
FTUS44 KBRO 011300 AAB
TAFHRL
TAF AMD
KHRL 011323Z 0113/0212 00000KT 3SM BR SCT002
     FM011500 16010G15KT P6SM SCT040
     FM020600 16010KT P6SM BKN015=

USA.gov is the U.S. government's official web portal to all federal, state and local government web resources and services.